{"data":{"norad_id":65875,"intl_designator":"2025-223X","name":"STARLINK-34688","alt_names":[],"object_type":"PAYLOAD","status":"ACTIVE","operator":null,"country":"US","launch_date":"2025-10-03","launch_site_code":"AFWTR","launch_vehicle":null,"mission":null,"orbit_class":"UNKNOWN","rcs_meters":null,"size_class":null,"mass_kg":null,"dimensions":null,"purposes":["comms"],"wikipedia_slug":null,"has_3d_model":false,"image_url":null,"decayed_at":null,"tle_current":{"epoch":"2026-09-20T22:47:34.783296Z","epoch_age_seconds":67309,"freshness":"FRESH","line1":"1 65875U 25223X   26263.94970814  .00013083  00000+0  39757-3 0  9994","line2":"2 65875  53.1586 103.4645 0001205  92.2870 267.8271 15.34407377 54159","mean_motion":15.34407377,"eccentricity":0.0001205,"inclination_deg":53.1586,"raan_deg":103.4645,"arg_perigee_deg":92.287,"mean_anomaly_deg":267.8271,"bstar":0.00039757,"rev_number":5415,"period_min":93.847306887655,"perigee_km":461.85699568945,"apogee_km":463.50563290319,"semimajor_km":6840.8183142963,"source":"CELESTRAK","updated_at":"2026-09-21T09:00:35.753008Z"}}}